GFSGL_250_spd_231.txt.gz
Wind_Speed
40 36 31 32 26 21 23 24 24 24 25 23 21 20 18 15 15 15 15 15 16 20 23 25 26 28 30 32 36 38 40 42 44 43 46 46 44 38 32 28 25 30 36
47 44 38 35 36 37 35 26 28 28 28 28 26 25 23 22 21 20 20 20 20 22 25 27 28 30 32 33 36 40 41 44 45 47 45 46 47 44 36 32 31 33 35
38 40 39 39 35 29 27 27 30 32 30 30 30 28 27 26 25 24 24 24 24 25 26 28 31 32 34 36 37 40 43 44 47 48 47 48 48 46 39 34 34 33 36
35 42 45 43 39 36 32 35 33 35 35 34 33 32 31 30 29 29 28 27 27 28 29 29 32 34 35 37 39 40 43 45 48 51 49 49 49 48 44 34 33 36 40
41 50 46 46 47 49 46 45 38 38 40 39 36 35 35 34 34 31 30 30 31 31 31 31 32 35 37 39 40 42 43 46 48 51 51 50 50 49 46 36 33 37 37
40 47 53 54 51 51 49 42 39 41 41 43 43 41 38 39 38 35 34 33 33 34 34 34 35 37 39 40 41 45 44 46 47 50 50 50 50 49 46 39 34 34 36
43 49 53 57 60 54 47 43 44 45 44 44 47 46 44 43 41 39 39 39 39 39 39 40 40 41 41 41 42 46 46 41 40 44 48 51 50 50 47 42 33 34 36
52 52 51 50 50 50 47 46 46 45 46 46 47 50 49 48 47 45 43 41 42 44 44 45 45 45 44 43 43 46 47 41 36 37 39 43 46 45 45 46 32 34 39
57 53 52 49 49 48 51 49 46 46 46 46 47 49 53 52 50 49 48 45 45 47 46 46 45 48 48 44 42 43 47 43 35 36 35 38 42 42 44 46 34 34 37
55 52 51 50 48 48 50 49 45 47 50 48 47 49 52 54 55 53 51 49 46 49 49 47 47 47 49 45 42 42 44 41 36 36 34 34 37 39 41 39 34 35 37
68 62 58 55 49 47 47 48 47 48 49 50 50 51 51 54 57 55 54 51 49 49 48 49 48 47 43 41 34 34 33 34 32 33 34 34 36 36 36 43 41 38 39
72 65 65 61 56 51 48 51 51 53 53 53 51 52 54 55 56 57 56 53 53 51 50 50 47 47 41 36 31 30 31 30 29 32 33 34 34 32 39 41 44 43 43
75 69 65 66 63 58 51 51 52 54 57 50 50 53 53 53 55 56 56 53 48 47 48 48 46 46 38 31 28 30 32 33 31 30 33 33 35 36 37 38 43 47 47
78 72 71 70 68 63 55 51 53 56 58 53 56 57 53 53 53 53 50 46 43 39 39 39 40 38 35 28 26 28 35 37 38 36 35 36 37 39 37 36 41 43 45
81 77 77 71 71 68 61 56 52 52 55 54 54 57 56 56 55 51 50 47 41 40 39 38 36 30 28 28 30 33 38 40 39 43 39 37 41 40 40 37 37 41 44
88 84 78 78 75 70 65 62 58 53 51 52 54 53 53 53 52 50 47 45 44 45 42 39 35 34 32 27 32 38 39 41 41 44 41 38 37 40 40 42 37 38 42
95 91 81 78 80 76 69 67 62 58 53 55 50 49 49 48 47 45 45 46 43 41 41 37 38 37 36 31 34 33 49 40 39 41 33 31 35 35 37 44 45 39 43
91 92 92 87 86 81 75 72 69 65 59 54 55 55 53 51 49 49 48 45 43 39 37 37 36 37 35 39 40 40 44 42 45 38 33 31 34 30 33 47 47 45 44
90 88 88 92 93 90 88 81 76 72 68 60 59 59 60 57 54 48 47 47 45 39 38 40 37 42 45 45 44 42 43 45 46 43 36 36 40 35 36 30 41 42 48
95 92 91 92 94 93 92 88 81 78 75 70 65 62 62 59 56 56 54 52 46 42 43 45 44 41 44 43 43 42 39 42 48 47 45 43 41 40 42 45 49 52 47
103 99 95 95 96 97 89 88 90 84 80 78 73 67 65 66 57 54 61 59 55 50 46 48 50 48 49 49 46 48 48 47 51 46 42 44 39 45 52 51 49 49 45
109 106 102 101 99 99 99 96 94 97 91 85 82 77 73 68 67 63 62 65 63 59 55 53 51 51 55 56 55 54 57 50 48 39 43 44 42 50 54 52 48 50 47
114 111 109 107 106 104 102 99 99 98 98 92 88 85 81 76 71 66 63 64 59 61 62 61 60 60 61 60 62 59 58 56 54 51 51 54 53 55 58 60 56 54 52
118 117 115 113 112 109 108 104 102 98 98 100 95 91 88 85 79 75 73 68 68 65 66 68 70 69 70 70 66 62 60 59 60 58 56 58 59 59 61 62 62 61 62
121 120 120 120 117 115 114 110 107 105 102 101 103 99 95 92 88 83 79 77 76 75 75 70 71 74 76 78 76 72 66 66 62 61 61 63 62 63 65 65 66 65 65
118 123 124 122 121 120 119 117 113 110 107 106 104 104 103 99 95 91 87 83 82 80 78 77 79 78 77 81 81 81 76 75 74 73 70 69 68 66 67 68 69 70 71

GFSGL_250_spd_234.txt.gz
Wind_Speed
29 25 28 27 31 24 23 22 15 20 21 21 21 21 20 18 18 18 19 19 18 19 20 21 22 23 25 27 30 34 36 39 43 43 45 47 49 47 42 37 28 29 34
36 35 32 33 37 29 25 28 27 25 22 24 24 26 25 23 22 23 22 22 23 24 24 24 25 25 26 28 30 34 36 39 43 46 46 47 48 49 47 40 32 28 31
38 33 35 41 35 27 26 26 24 22 18 23 27 28 29 28 27 25 24 24 25 26 27 27 28 29 29 31 33 34 36 38 41 46 46 47 47 48 50 43 39 28 29
37 38 41 36 32 30 32 30 29 26 28 29 30 32 33 32 31 30 29 28 27 28 29 29 30 32 32 32 35 36 37 39 41 44 44 45 44 46 47 46 46 33 30
43 41 41 35 33 35 38 35 34 34 36 37 37 36 37 37 36 34 32 31 32 31 32 30 31 33 35 36 37 38 40 41 42 43 43 44 44 45 46 48 47 37 33
43 38 36 38 39 37 43 41 39 41 44 45 41 39 39 41 42 39 38 36 35 35 35 34 33 35 36 37 38 38 41 43 40 41 41 40 40 42 43 45 46 38 36
41 35 33 42 42 46 47 46 49 48 46 47 45 43 42 43 44 43 43 42 41 40 40 39 38 38 39 38 38 40 43 43 39 39 38 37 37 38 40 40 44 40 37
41 39 41 42 44 47 51 50 50 49 51 55 54 46 44 46 47 45 44 44 46 45 45 43 42 41 40 38 37 40 41 42 33 35 28 30 31 31 32 30 39 42 47
53 44 46 49 50 50 49 54 53 49 48 49 49 46 45 47 48 47 44 42 46 48 49 49 48 46 45 39 38 38 40 40 33 31 27 29 28 28 29 27 36 41 45
60 58 59 60 61 59 57 55 55 55 53 46 49 49 47 47 46 49 47 44 43 47 49 51 50 49 49 46 39 39 40 36 32 31 32 30 30 30 30 31 34 40 39
73 72 67 69 65 62 60 60 53 48 48 46 45 49 48 50 47 46 46 45 45 45 48 52 52 49 47 46 42 38 36 33 35 30 26 28 29 33 34 32 33 34 36
78 77 73 68 59 61 61 56 57 54 50 48 48 49 51 47 48 49 48 48 47 48 50 51 51 48 46 46 41 34 32 26 24 24 27 30 31 33 36 34 36 33 33
85 82 80 77 75 73 69 67 66 64 61 56 51 50 51 51 47 50 50 52 54 51 49 49 48 48 44 39 34 29 24 22 22 25 23 28 32 34 36 37 35 34 34
89 88 85 84 82 82 79 74 71 67 65 61 55 51 53 54 51 53 47 50 50 50 51 48 44 43 43 39 37 28 24 23 24 26 23 27 34 36 38 42 32 31 32
93 91 88 87 83 83 82 79 73 69 66 60 59 58 54 51 51 58 59 57 57 53 51 47 41 40 39 37 35 30 25 29 30 30 30 30 32 37 40 40 30 27 28
95 92 91 91 87 86 86 81 74 71 71 65 60 60 59 56 52 54 57 58 57 56 51 47 43 40 40 38 37 34 32 36 35 35 32 30 32 38 46 41 37 37 37
100 97 94 92 92 91 86 82 80 76 76 72 66 62 63 61 59 55 52 51 53 50 46 45 42 38 39 40 40 40 39 41 38 31 30 31 39 40 43 39 40 44 46
100 98 96 95 94 93 90 88 87 80 79 78 75 70 68 63 62 60 56 53 49 46 44 42 39 35 38 39 41 41 41 45 43 44 39 31 36 40 43 46 46 47 46
106 99 98 98 99 98 93 92 96 87 85 85 81 78 74 68 65 64 61 58 51 48 45 45 40 40 42 41 39 40 41 47 48 47 45 36 31 36 42 38 48 53 46
111 103 101 102 103 102 97 92 93 93 92 93 89 85 81 79 72 68 67 63 50 55 56 53 46 45 43 45 44 41 41 45 49 49 49 44 42 38 39 39 47 51 48
114 109 106 103 104 101 96 92 90 92 94 97 96 94 89 87 84 81 74 69 65 58 56 53 53 55 50 47 49 47 46 49 50 50 51 51 53 50 45 45 51 53 46
122 116 112 108 107 104 98 97 94 91 94 95 97 100 99 93 93 88 82 78 72 68 63 61 62 61 56 53 52 50 51 54 55 54 56 53 55 55 52 48 49 52 53
124 123 118 115 113 109 103 104 98 97 94 93 93 96 96 95 95 94 88 85 81 73 72 69 69 68 65 60 60 58 57 58 59 58 59 62 60 60 59 63 58 52 54
123 121 120 119 116 114 112 111 107 104 100 99 99 98 98 99 100 99 96 92 88 83 78 76 74 74 74 69 67 65 63 63 63 65 64 63 64 65 62 62 61 57 58
125 124 123 120 119 118 116 115 115 114 114 113 114 111 109 106 105 104 103 101 98 92 88 84 82 79 76 76 73 70 70 69 69 68 69 67 66 66 65 65 63 61 60
110 115 122 124 123 123 121 121 119 119 121 122 122 119 116 114 111 111 110 107 103 101 96 91 89 86 82 78 74 71 73 74 73 74 75 75 74 73 74 70 71 71 70

GFSGL_250_spd_240.txt.gz
Wind_Speed
37 30 30 20 21 13 7 14 14 7 12 16 13 12 17 18 19 21 21 20 20 21 22 22 23 23 23 22 22 24 27 30 33 32 36 36 37 38 36 35 36 37 40
39 31 30 26 25 17 14 13 20 16 13 17 17 14 15 17 16 19 23 24 25 26 26 26 26 26 27 27 25 24 26 29 32 36 35 34 37 35 33 33 34 31 33
37 39 33 32 27 24 19 15 17 23 20 19 20 19 18 21 22 21 20 24 26 28 29 30 31 31 30 31 29 27 28 31 33 36 34 31 34 34 32 31 31 31 29
43 41 32 34 35 32 25 23 24 26 24 26 22 24 22 26 26 26 25 25 28 30 31 33 32 33 33 32 32 31 31 32 32 35 36 32 31 31 33 30 28 28 26
35 43 40 41 36 38 37 34 26 23 29 38 31 26 24 22 27 29 28 30 32 31 32 35 36 34 35 35 35 34 33 34 35 37 36 35 32 31 30 25 22 28 31
48 45 42 47 45 47 43 38 38 32 30 33 35 32 27 24 25 26 27 32 35 39 36 38 38 40 38 35 33 33 34 35 38 35 35 35 35 31 31 29 24 28 36
52 49 48 47 46 43 42 40 38 35 33 33 34 32 30 25 27 30 30 32 38 38 39 39 37 38 40 38 36 36 37 38 37 33 37 37 35 32 29 29 26 36 35
50 54 53 52 50 45 44 44 42 42 44 42 40 36 31 32 35 33 30 35 37 39 37 35 37 39 39 39 36 35 37 37 31 31 33 31 30 28 28 26 29 31 31
40 37 39 38 48 50 53 50 49 51 48 48 44 41 35 34 31 38 34 36 36 38 35 38 38 38 40 38 36 34 34 35 33 32 31 29 30 29 27 23 23 26 27
42 34 34 30 53 57 54 58 53 53 52 52 47 45 41 37 38 38 32 33 32 31 36 34 36 38 40 39 35 35 37 34 35 35 32 31 30 27 22 25 21 22 20
51 52 42 57 52 56 56 57 57 53 57 56 53 50 47 42 43 39 39 36 36 37 42 39 36 37 40 38 35 35 36 35 34 33 30 30 26 26 23 24 20 22 22
59 64 62 58 33 71 59 60 58 62 64 63 58 53 55 54 55 48 42 39 39 41 42 41 38 37 40 39 31 33 36 39 38 36 31 27 26 25 26 22 23 22 21
72 73 68 71 72 66 66 69 64 59 63 68 65 66 67 64 65 60 51 46 42 44 49 46 38 36 34 31 33 38 38 38 37 41 35 29 30 28 27 24 24 23 26
78 76 78 77 80 79 76 76 69 66 65 67 69 73 74 75 69 64 61 55 57 54 51 47 44 36 36 37 38 37 39 44 49 50 41 32 34 36 30 29 28 27 28
82 83 80 80 80 78 75 76 74 73 72 71 69 72 73 74 69 68 65 63 63 60 53 50 49 42 38 39 40 39 42 50 54 48 39 30 31 33 32 33 35 33 32
90 87 85 84 86 85 87 85 82 79 79 79 78 77 77 76 75 72 70 69 68 63 58 55 53 50 43 46 50 47 53 54 53 48 38 33 34 38 38 37 36 35 32
93 92 92 92 89 88 87 89 87 86 85 87 84 81 79 80 81 79 77 75 72 67 64 62 58 56 53 52 51 54 56 51 47 48 43 39 41 44 45 42 41 40 39
95 96 96 96 95 97 98 93 92 92 90 89 89 88 86 86 87 87 82 78 77 72 70 68 65 63 61 60 55 54 52 50 47 46 44 41 39 41 47 49 49 45 45
101 100 101 102 102 101 97 97 98 100 99 99 99 96 93 90 89 89 88 86 81 78 75 76 72 69 70 68 65 60 55 50 51 48 45 44 44 47 43 46 51 50 50
107 105 106 106 104 104 104 104 106 105 105 104 102 100 98 97 95 93 93 89 86 85 82 80 79 74 73 72 70 66 61 56 53 56 50 51 51 51 48 48 49 52 54
114 112 110 109 107 107 106 106 108 109 110 105 102 103 101 97 98 98 98 94 88 84 81 80 82 82 79 78 76 71 70 67 62 58 56 57 58 56 53 54 54 54 55
113 113 114 112 112 110 110 109 110 111 114 111 108 106 108 102 100 99 98 96 92 87 85 83 84 82 81 81 81 78 74 70 70 67 62 62 60 60 61 60 61 60 59
115 114 115 116 115 114 113 111 111 111 113 114 113 111 112 109 107 104 103 102 101 97 91 88 89 88 85 85 86 85 82 80 79 76 74 72 73 71 69 71 69 68 65
120 119 120 119 119 119 119 117 117 117 115 116 115 115 114 113 112 109 108 107 105 102 96 93 92 91 90 90 90 87 87 86 83 82 81 80 79 79 78 75 72 71 69
126 126 126 124 123 123 123 122 123 123 120 121 123 122 121 120 118 116 112 111 107 106 101 98 98 97 95 96 92 88 88 89 90 86 84 83 84 84 81 78 77 73 72
125 127 129 131 129 128 127 126 125 125 129 129 129 128 127 126 125 121 119 119 117 114 110 104 101 100 97 96 97 97 95 93 91 94 91 88 85 86 84 81 78 77 76

GFSGL_250_spd_246.txt.gz
Wind_Speed
33 35 32 27 28 25 15 13 14 15 14 13 15 10 10 9 9 11 13 16 16 17 17 15 17 19 21 24 25 25 26 28 31 29 28 24 17 20 20 17 15 14 14
39 39 36 34 34 29 24 22 18 16 14 13 20 6 11 15 15 14 12 17 21 23 25 21 17 18 18 21 23 26 26 26 28 31 30 26 16 16 20 18 18 15 16
38 42 40 37 37 30 31 28 26 19 14 23 12 19 18 18 19 19 15 18 19 22 23 23 25 29 26 30 25 30 26 25 26 27 30 27 20 17 20 20 19 16 14
35 37 40 38 40 35 37 35 34 27 24 24 24 16 12 14 21 17 18 21 23 19 21 18 26 29 24 31 32 28 24 26 26 26 29 29 23 24 19 19 18 16 18
34 34 35 34 37 43 36 39 38 34 26 33 29 29 26 27 25 22 21 27 27 19 19 24 25 24 27 33 33 30 25 26 27 26 27 29 30 28 26 22 19 19 21
38 36 40 38 40 43 45 47 43 33 31 30 35 35 35 35 31 33 29 23 24 26 26 29 29 33 34 25 26 27 26 26 26 24 26 28 29 25 27 25 18 18 20
40 42 46 46 43 43 49 44 41 43 42 42 35 36 36 38 36 37 34 30 26 29 35 31 28 28 22 22 24 26 26 25 24 21 22 26 27 27 26 28 22 17 24
44 44 49 47 52 48 40 45 44 43 47 49 48 47 45 44 43 37 40 34 30 29 32 31 28 24 24 25 24 25 27 25 25 26 25 23 19 24 23 24 15 10 38
48 47 49 55 50 49 55 49 41 41 46 51 54 49 43 47 49 44 38 38 38 34 33 35 31 28 26 25 23 26 30 26 29 32 27 24 33 26 22 26 15 22 30
51 51 51 50 52 54 57 52 52 47 30 56 56 55 51 45 42 46 42 44 44 44 38 38 37 35 32 27 26 31 32 32 34 31 28 31 24 24 22 25 31 26 31
55 54 55 55 54 54 58 62 59 47 46 50 57 51 53 43 40 45 49 43 45 47 46 44 41 45 45 36 31 32 32 37 39 34 33 31 26 32 22 35 34 35 32
63 59 62 59 60 60 58 53 40 66 61 49 55 48 46 46 39 38 45 50 41 33 35 36 47 49 49 48 45 45 37 38 41 40 35 35 35 31 33 32 32 37 35
59 64 63 59 66 69 66 58 60 59 61 56 57 49 58 35 39 41 50 54 43 47 57 62 63 52 53 52 54 51 46 43 41 41 37 41 36 33 36 35 39 37 36
73 67 73 74 69 68 71 70 72 76 65 62 61 57 58 60 63 54 60 64 58 60 62 66 61 59 52 54 55 55 49 46 46 46 45 43 40 37 37 39 43 42 39
81 74 76 74 74 74 74 75 75 74 71 70 68 61 61 61 60 63 67 61 65 69 72 70 66 62 56 53 55 54 52 49 50 49 47 46 43 38 41 41 46 45 46
91 90 81 81 81 78 77 79 79 77 76 77 75 70 62 72 73 72 68 60 65 68 67 64 63 64 61 61 60 59 58 55 54 55 56 49 45 48 48 50 48 48 49
98 98 94 90 84 84 82 79 79 83 86 85 83 80 77 75 76 81 79 69 71 68 67 65 65 69 71 72 72 66 64 66 64 62 61 61 58 55 54 52 53 52 55
99 100 97 92 89 90 89 87 84 83 87 89 89 88 88 89 87 87 88 85 85 85 83 79 77 79 82 82 80 78 71 72 72 69 68 65 64 61 60 58 54 55 56
103 103 101 99 97 96 96 96 95 92 90 94 95 95 93 96 96 96 98 98 97 99 97 96 96 95 92 85 87 89 85 80 76 75 72 73 74 73 68 63 62 58 61
109 108 108 107 105 104 103 101 100 99 96 99 101 102 101 104 103 100 101 101 102 104 101 98 97 100 98 96 94 94 94 92 88 85 83 81 80 80 80 77 70 66 63
117 116 115 115 114 113 111 109 109 106 105 102 101 104 108 108 108 110 105 106 106 105 104 104 103 102 102 101 99 97 96 93 94 92 91 88 87 84 83 82 77 72 69
125 123 122 122 122 121 119 118 117 118 115 113 112 110 111 112 114 114 112 112 113 113 112 112 110 109 107 105 106 106 104 101 101 99 99 96 91 87 86 85 82 78 74
130 130 130 129 128 129 127 125 126 126 123 121 121 121 119 118 118 121 121 119 120 118 118 118 116 113 112 112 112 111 110 109 108 105 103 101 98 94 92 92 90 87 85
130 131 134 134 134 134 135 135 133 131 131 130 129 128 128 126 126 128 127 125 125 123 123 123 121 120 118 117 116 117 116 112 111 108 106 106 103 98 97 97 93 91 91
128 132 135 136 137 137 138 138 137 136 137 138 138 136 134 133 133 131 130 130 128 126 127 126 127 127 123 123 120 121 118 117 115 112 108 110 108 107 103 102 102 99 95
114 120 125 129 133 136 138 139 139 139 138 138 139 138 137 137 137 138 137 137 136 135 133 133 134 131 128 128 127 127 125 124 124 122 121 118 117 111 110 105 99 97 93